When you browse on this site, cookies collect data to enhance your experience and personalize the content and advertising you see.
Visit our Privacy Policy to learn more. By continuing to use the site, you agree to this use of cookies and data.
  • Em Portugal
  • Lista de países
  • Para 7 dias
  • Temperatura da água
  • Mapas de satélite
  • Mapa do tempo
  • Widgets de tempo
  • user-avatar
    Iniciar Sessão

    Previsão horária em Mons

    Hoje, 19 Dezembro, Quarta-feira

    Tempo Temperatura Precipitação Vento Pressão Humidade
    00:00 +4°C° 0 mm 7 m/s 754 mmHg 78%
    01:00 +5°C° 0.3 mm 7 m/s 754 mmHg 82%
    02:00 +5°C° 0.3 mm 6 m/s 754 mmHg 86%
    03:00 +5°C° 0.3 mm 6 m/s 754 mmHg 90%
    04:00 +5°C° 0 mm 6 m/s 754 mmHg 90%
    05:00 +6°C° 0 mm 5 m/s 755 mmHg 91%
    06:00 +6°C° 0 mm 4 m/s 755 mmHg 93%
    07:00 +6°C° 0 mm 5 m/s 755 mmHg 92%
    08:00 +5°C° 0 mm 6 m/s 755 mmHg 90%
    09:00 +5°C° 0 mm 6 m/s 755 mmHg 89%
    10:00 +7°C° 0 mm 6 m/s 755 mmHg 88%
    11:00 +7°C° 0 mm 6 m/s 755 mmHg 86%
    12:00 +7°C° 0 mm 6 m/s 755 mmHg 84%
    13:00 +7°C° 0 mm 5 m/s 755 mmHg 84%
    14:00 +7°C° 0 mm 5 m/s 755 mmHg 84%
    15:00 +7°C° 0 mm 4 m/s 755 mmHg 83%
    16:00 +7°C° 0 mm 4 m/s 755 mmHg 84%
    17:00 +7°C° 0 mm 4 m/s 755 mmHg 85%
    18:00 +7°C° 0 mm 4 m/s 755 mmHg 85%
    19:00 +7°C° 0.4 mm 4 m/s 755 mmHg 87%
    20:00 +6°C° 0.4 mm 4 m/s 755 mmHg 89%
    21:00 +6°C° 0.4 mm 5 m/s 755 mmHg 90%
    22:00 +6°C° 0.6 mm 5 m/s 755 mmHg 91%
    23:00 +6°C° 0.6 mm 5 m/s 755 mmHg 91%

    Amanhã, 20 Dezembro, Quinta-feira

    Tempo Temperatura Precipitação Vento Pressão Humidade
    00:00 +6°C° 0.6 mm 5 m/s 755 mmHg 92%
    01:00 +6°C° 0 mm 5 m/s 755 mmHg 91%
    02:00 +5°C° 0 mm 6 m/s 755 mmHg 91%
    03:00 +4°C° 0 mm 6 m/s 755 mmHg 90%
    04:00 +5°C° 0.2 mm 6 m/s 755 mmHg 90%
    05:00 +5°C° 0.2 mm 6 m/s 755 mmHg 89%
    06:00 +5°C° 0.2 mm 6 m/s 755 mmHg 88%
    07:00 +5°C° 0.2 mm 6 m/s 755 mmHg 88%
    08:00 +5°C° 0.2 mm 6 m/s 756 mmHg 87%
    09:00 +5°C° 0.2 mm 6 m/s 756 mmHg 86%
    10:00 +5°C° 0.1 mm 7 m/s 756 mmHg 85%
    11:00 +6°C° 0.1 mm 7 m/s 756 mmHg 84%
    12:00 +6°C° 0.1 mm 7 m/s 756 mmHg 82%
    13:00 +6°C° 0.1 mm 7 m/s 756 mmHg 82%
    14:00 +6°C° 0.1 mm 7 m/s 756 mmHg 81%
    15:00 +7°C° 0.1 mm 6 m/s 756 mmHg 81%
    16:00 +7°C° 0.1 mm 6 m/s 756 mmHg 81%
    17:00 +7°C° 0.1 mm 6 m/s 757 mmHg 81%
    18:00 +7°C° 0.1 mm 6 m/s 757 mmHg 81%
    19:00 +6°C° 0.1 mm 7 m/s 757 mmHg 81%
    20:00 +6°C° 0.1 mm 7 m/s 756 mmHg 81%
    21:00 +6°C° 0.1 mm 7 m/s 756 mmHg 82%
    22:00 +6°C° 0.3 mm 7 m/s 756 mmHg 84%
    23:00 +6°C° 0.3 mm 7 m/s 755 mmHg 87%

    Depois de amanhã, 21 Dezembro, Sexta-feira

    Tempo Temperatura Precipitação Vento Pressão Humidade
    00:00 +8°C° 0.3 mm 7 m/s 755 mmHg 89%
    01:00 +8°C° 2.1 mm 7 m/s 754 mmHg 90%
    02:00 +9°C° 2.1 mm 7 m/s 753 mmHg 91%
    03:00 +9°C° 2.1 mm 7 m/s 752 mmHg 92%
    04:00 +10°C° 1.7 mm 8 m/s 751 mmHg 91%
    05:00 +10°C° 1.7 mm 8 m/s 750 mmHg 90%
    06:00 +11°C° 1.7 mm 9 m/s 749 mmHg 89%
    07:00 +11°C° 1.9 mm 9 m/s 749 mmHg 89%
    08:00 +11°C° 1.9 mm 9 m/s 749 mmHg 89%
    09:00 +12°C° 1.9 mm 10 m/s 749 mmHg 88%
    10:00 +12°C° 0.7 mm 10 m/s 749 mmHg 88%
    11:00 +12°C° 0.7 mm 10 m/s 749 mmHg 87%
    12:00 +13°C° 0.7 mm 9 m/s 749 mmHg 86%
    13:00 +12°C° 0.1 mm 9 m/s 750 mmHg 82%
    14:00 +12°C° 0.1 mm 9 m/s 751 mmHg 79%
    15:00 +11°C° 0.1 mm 9 m/s 752 mmHg 76%
    16:00 +10°C° 0 mm 8 m/s 752 mmHg 78%
    17:00 +9°C° 0 mm 7 m/s 753 mmHg 80%
    18:00 +9°C° 0 mm 6 m/s 754 mmHg 83%
    19:00 +8°C° 0 mm 6 m/s 754 mmHg 84%
    20:00 +8°C° 0 mm 6 m/s 754 mmHg 85%
    21:00 +8°C° 0 mm 6 m/s 754 mmHg 87%
    22:00 +9°C° 0.2 mm 6 m/s 754 mmHg 87%
    23:00 +9°C° 0.2 mm 7 m/s 754 mmHg 88%

    22 Dezembro, Sábado

    Tempo Temperatura Precipitação Vento Pressão Humidade
    00:00 +10°C° 0.2 mm 7 m/s 754 mmHg 89%
    01:00 +10°C° 0.3 mm 7 m/s 754 mmHg 87%
    02:00 +10°C° 0.3 mm 8 m/s 754 mmHg 84%
    03:00 +10°C° 0.3 mm 8 m/s 754 mmHg 82%
    04:00 +10°C° 0.1 mm 9 m/s 754 mmHg 80%
    05:00 +8°C° 0.1 mm 9 m/s 755 mmHg 78%
    06:00 +8°C° 0.1 mm 10 m/s 755 mmHg 76%
    07:00 +8°C° 0 mm 9 m/s 756 mmHg 75%
    08:00 +7°C° 0 mm 8 m/s 757 mmHg 75%
    09:00 +8°C° 0 mm 7 m/s 758 mmHg 74%
    10:00 +8°C° 0 mm 7 m/s 759 mmHg 73%
    11:00 +9°C° 0 mm 7 m/s 760 mmHg 73%
    12:00 +9°C° 0 mm 7 m/s 760 mmHg 72%
    13:00 +9°C° 0.1 mm 6 m/s 760 mmHg 75%
    14:00 +9°C° 0.1 mm 5 m/s 761 mmHg 78%
    15:00 +10°C° 0.1 mm 4 m/s 761 mmHg 81%
    16:00 +10°C° 0.3 mm 4 m/s 761 mmHg 84%
    17:00 +9°C° 0.3 mm 5 m/s 761 mmHg 86%
    18:00 +8°C° 0.3 mm 5 m/s 762 mmHg 89%
    19:00 +8°C° 0.1 mm 5 m/s 762 mmHg 90%
    20:00 +8°C° 0.1 mm 4 m/s 762 mmHg 91%
    21:00 +8°C° 0.1 mm 4 m/s 762 mmHg 92%
    22:00 +7°C° 0 mm 4 m/s 763 mmHg 93%
    23:00 +7°C° 0 mm 4 m/s 763 mmHg 93%

    23 Dezembro, Domingo

    Tempo Temperatura Precipitação Vento Pressão Humidade
    00:00 +7°C° 0 mm 3 m/s 763 mmHg 94%
    01:00 +7°C° 0 mm 3 m/s 763 mmHg 95%
    02:00 +7°C° 0 mm 3 m/s 763 mmHg 95%
    03:00 +7°C° 0 mm 3 m/s 763 mmHg 95%
    04:00 +7°C° 0.1 mm 3 m/s 763 mmHg 95%
    05:00 +7°C° 0.1 mm 3 m/s 764 mmHg 95%
    06:00 +7°C° 0.1 mm 3 m/s 764 mmHg 95%
    07:00 +7°C° 0.1 mm 2 m/s 764 mmHg 94%
    08:00 +7°C° 0.1 mm 2 m/s 764 mmHg 94%
    09:00 +7°C° 0.1 mm 2 m/s 764 mmHg 94%
    10:00 +8°C° 0 mm 2 m/s 764 mmHg 92%
    11:00 +8°C° 0 mm 2 m/s 764 mmHg 89%
    12:00 +9°C° 0 mm 2 m/s 764 mmHg 87%
    13:00 +8°C° 0 mm 2 m/s 764 mmHg 88%
    14:00 +8°C° 0 mm 2 m/s 764 mmHg 89%
    15:00 +9°C° 0 mm 1 m/s 764 mmHg 90%
    16:00 +8°C° 0 mm 1 m/s 765 mmHg 91%
    17:00 +8°C° 0 mm 1 m/s 765 mmHg 92%
    18:00 +7°C° 0 mm 1 m/s 765 mmHg 94%
    19:00 +7°C° 0 mm 1 m/s 765 mmHg 93%
    20:00 +7°C° 0 mm 1 m/s 766 mmHg 93%
    21:00 +7°C° 0 mm 1 m/s 766 mmHg 93%
    22:00 +7°C° 0.5 mm 1 m/s 766 mmHg 93%
    23:00 +7°C° 0.5 mm 1 m/s 766 mmHg 93%

    24 Dezembro, Segunda-feira

    Tempo Temperatura Precipitação Vento Pressão Humidade
    00:00 +7°C° 0.5 mm 1 m/s 766 mmHg 93%
    01:00 +7°C° 0.5 mm 1 m/s 766 mmHg 93%
    02:00 +7°C° 0.5 mm 1 m/s 766 mmHg 93%
    03:00 +7°C° 0.5 mm 1 m/s 766 mmHg 93%
    04:00 +7°C° 0 mm 1 m/s 766 mmHg 92%
    05:00 +7°C° 0 mm 1 m/s 766 mmHg 92%
    06:00 +6°C° 0 mm 2 m/s 767 mmHg 92%
    07:00 +6°C° 0 mm 2 m/s 767 mmHg 91%
    08:00 +6°C° 0 mm 2 m/s 768 mmHg 90%
    09:00 +6°C° 0 mm 2 m/s 768 mmHg 89%
    10:00 +7°C° 0 mm 2 m/s 768 mmHg 85%
    11:00 +8°C° 0 mm 2 m/s 768 mmHg 80%
    12:00 +9°C° 0 mm 2 m/s 768 mmHg 75%
    13:00 +8°C° 0 mm 2 m/s 769 mmHg 77%
    14:00 +8°C° 0 mm 2 m/s 769 mmHg 79%
    15:00 +7°C° 0 mm 2 m/s 769 mmHg 81%
    16:00 +7°C° 0 mm 2 m/s 769 mmHg 83%
    17:00 +6°C° 0 mm 2 m/s 769 mmHg 85%
    18:00 +5°C° 0 mm 2 m/s 769 mmHg 86%
    19:00 +5°C° 0 mm 2 m/s 769 mmHg 86%
    20:00 +5°C° 0 mm 2 m/s 769 mmHg 86%
    21:00 +5°C° 0 mm 2 m/s 770 mmHg 86%
    22:00 +4°C° 0 mm 2 m/s 769 mmHg 85%
    23:00 +4°C° 0 mm 2 m/s 769 mmHg 85%
    Mostrar mais